FW9245 Weather Reports


Display with metric or nautical units.
time (UTC)temp
F
wind
direction
speed
MPH
gust
MPH
rain 1hr
in
rain 24hr
in
rain mn
in
humidity
%
barometer
mb
20260902101053 76 230 5.0 10.0 0.00 0.00 0.00 64
20260902094044 74 245 4.0 8.0 0.00 0.00 0.00 69
20260902093050 73 246 4.0 8.0 0.00 0.00 0.00 71
20260902092053 73 225 5.0 12.0 0.00 0.00 0.00 71
20260902091051 70 225 4.0 6.0 0.00 0.00 0.00 76
20260902090049 68 222 4.0 7.0 0.00 0.00 0.00 77
20260902085039 67 231 4.0 7.0 0.00 0.00 0.00 79
20260902084037 67 225 4.0 8.0 0.00 0.00 0.00 79
20260902083055 67 224 3.0 7.0 0.00 0.00 0.00 80
20260902082050 67 223 5.0 10.0 0.00 0.00 0.00 80
20260902081047 67 226 3.0 7.0 0.00 0.00 0.00 81
20260902080045 66 219 4.0 8.0 0.00 0.00 0.00 83
20260902075044 66 206 4.0 8.0 0.00 0.00 0.00 84
20260902074055 65 224 4.0 9.0 0.00 0.00 0.00 85
20260902073100 63 225 5.0 10.0 0.00 0.00 0.00 87
20260902072038 63 219 4.0 8.0 0.00 0.00 0.00 88
20260902071051 62 222 4.0 8.0 0.00 0.00 0.00 89
20260902070058 61 221 2.0 7.0 0.00 0.00 0.00 90
20260902065052 60 198 3.0 6.0 0.00 0.00 0.00 91
20260902064041 60 227 4.0 7.0 0.00 0.00 0.00 91
20260902063050 60 228 5.0 10.0 0.00 0.00 0.00 91
20260902062044 60 207 6.0 10.0 0.00 0.00 0.00 92
20260902061045 59 206 5.0 8.0 0.00 0.00 0.00 93
20260902060051 58 219 1.0 5.0 0.00 0.00 0.00 94
20260902055052 58 180 1.0 2.0 0.00 0.00 0.00 94
20260902054046 57 185 0.0 2.0 0.00 0.00 0.00 95
20260902053045 57 177 0.0 2.0 0.00 0.00 0.00 95
20260902052055 57 134 0.0 2.0 0.00 0.00 0.00 95
20260902045044 56 223 2.0 5.0 0.00 0.00 0.00 95
20260902044053 56 229 1.0 3.0 0.00 0.00 0.00 96
20260902043059 56 137 1.0 3.0 0.00 0.00 0.00 96
20260902042049 55 129 0.0 2.0 0.00 0.00 0.00 96
20260902041038 55 137 0.0 1.0 0.00 0.00 0.00 96
20260902040049 55 182 1.0 2.0 0.00 0.00 0.00 96
20260902035036 55 175 1.0 3.0 0.00 0.00 0.00 96
20260902033059 55 220 0.0 1.0 0.00 0.00 0.00 97
20260902032051 54 231 1.0 2.0 0.00 0.00 0.00 97
20260902031038 54 227 0.0 0.0 0.00 0.00 0.00 97
20260902030048 54 226 0.0 0.0 0.00 0.00 0.00 97
20260902025041 54 230 0.0 1.0 0.00 0.00 0.00 97
20260902024045 54 220 0.0 0.0 0.00 0.00 0.00 97
20260902023043 54 222 0.0 0.0 0.00 0.00 0.00 96
20260902022054 54 227 0.0 1.0 0.00 0.00 0.00 96
20260902021053 54 226 0.0 2.0 0.00 0.00 0.00 96
20260902020056 54 250 1.0 2.0 0.00 0.00 0.00 96
20260902015051 54 209 1.0 2.0 0.00 0.00 0.00 96
20260902014048 54 209 0.0 1.0 0.00 0.00 0.00 96
20260902012047 55 208 0.0 2.0 0.00 0.00 0.00 96
20260902011043 56 197 1.0 3.0 0.00 0.00 0.00 96
20260902010046 56 153 0.0 0.0 0.00 0.00 0.00 96
20260902005039 56 152 1.0 2.0 0.00 0.00 0.00 96
20260902003054 56 222 2.0 4.0 0.00 0.00 0.00 95
20260902002045 56 223 2.0 3.0 0.00 0.00 0.00 95
20260902001036 56 220 2.0 4.0 0.00 0.00 0.00 95
20260901235053 57 220 2.0 4.0 0.00 0.00 0.00 95
20260901233050 57 251 2.0 4.0 0.00 0.00 0.00 94
20260901232043 57 242 2.0 5.0 0.00 0.00 0.00 94
20260901231044 57 224 2.0 5.0 0.00 0.00 0.00 93
20260901230100 57 229 2.0 5.0 0.00 0.00 0.00 93
20260901225045 58 225 2.0 5.0 0.00 0.00 0.00 93
20260901224049 58 249 3.0 5.0 0.00 0.00 0.00 93
20260901222057 58 246 3.0 6.0 0.00 0.00 0.00 92
20260901221048 59 224 3.0 5.0 0.00 0.00 0.00 92
20260901215046 59 246 3.0 6.0 0.00 0.00 0.00 91
20260901214046 60 253 3.0 7.0 0.00 0.00 0.00 91
20260901213047 60 245 3.0 8.0 0.00 0.00 0.00 90
20260901212043 60 265 3.0 8.0 0.00 0.00 0.00 90
20260901211102 60 276 3.0 11.0 0.00 0.00 0.00 89
20260901210101 60 294 3.0 11.0 0.00 0.00 0.00 89
20260901205041 61 274 4.0 12.0 0.00 0.00 0.00 89
20260901204045 61 249 4.0 11.0 0.00 0.00 0.00 89
20260901203051 61 245 4.0 13.0 0.00 0.00 0.00 88
20260901202052 61 266 3.0 10.0 0.00 0.00 0.00 88
20260901201043 61 242 4.0 12.0 0.00 0.00 0.00 87
20260901194045 62 253 4.0 11.0 0.00 0.00 0.00 85
20260901193053 62 247 5.0 16.0 0.00 0.00 0.00 85
20260901192046 62 242 4.0 13.0 0.00 0.00 0.00 84
20260901191048 63 275 4.0 11.0 0.00 0.00 0.00 84
20260901190055 63 246 5.0 13.0 0.00 0.00 0.00 83
20260901185049 64 244 5.0 12.0 0.00 0.00 0.00 82
20260901184042 64 253 5.0 11.0 0.00 0.00 0.00 82
20260901183054 64 220 5.0 10.0 0.00 0.00 0.00 81
20260901182039 65 228 5.0 10.0 0.00 0.00 0.00 81
20260901181039 66 253 4.0 7.0 0.00 0.00 0.00 80
20260901180057 67 223 5.0 10.0 0.00 0.00 0.00 79
20260901175040 67 246 4.0 9.0 0.00 0.00 0.00 79
20260901173052 68 249 5.0 11.0 0.00 0.00 0.00 78
20260901171052 68 248 4.0 11.0 0.00 0.00 0.00 76
20260901170055 69 227 4.0 10.0 0.00 0.00 0.00 75
20260901163051 70 251 4.0 12.0 0.00 0.00 0.00 73
20260901162042 70 243 4.0 12.0 0.00 0.00 0.00 72
20260901160100 72 221 6.0 15.0 0.00 0.00 0.00 70
20260901155056 72 222 5.0 10.0 0.00 0.00 0.00 71
20260901154053 72 220 6.0 14.0 0.00 0.00 0.00 70
20260901153043 72 230 6.0 14.0 0.00 0.00 0.00 70
20260901152046 72 244 4.0 11.0 0.00 0.00 0.00 71
20260901151046 72 254 4.0 11.0 0.00 0.00 0.00 71
20260901145040 73 249 5.0 15.0 0.00 0.00 0.00 69
20260901144045 73 272 6.0 14.0 0.00 0.00 0.00 67
20260901143058 74 242 4.0 16.0 0.00 0.00 0.00 65
20260901142049 76 250 4.0 16.0 0.00 0.00 0.00 66
20260901135039 76 310 5.0 15.0 0.00 0.00 0.00 66
20260901133057 77 289 7.0 22.0 0.00 0.00 0.00 63
20260901132052 77 274 8.0 26.0 0.00 0.00 0.00 61
20260901130053 79 294 4.0 20.0 0.00 0.00 0.00 60
20260901124052 79 289 5.0 16.0 0.00 0.00 0.00 59
20260901123046 80 265 5.0 16.0 0.00 0.00 0.00 58
20260901122052 79 248 7.0 22.0 0.00 0.00 0.00 57
20260901121039 80 320 6.0 21.0 0.00 0.00 0.00 56
20260901120059 80 318 6.0 21.0 0.00 0.00 0.00 58
20260901115044 80 311 5.0 21.0 0.00 0.00 0.00 60
20260901114040 79 292 5.0 15.0 0.00 0.00 0.00 60
20260901113046 78 242 5.0 16.0 0.00 0.00 0.00 61
20260901111053 78 264 5.0 15.0 0.00 0.00 0.00 61
20260901110100 79 246 5.0 16.0 0.00 0.00 0.00 60
20260901105042 80 247 6.0 15.0 0.00 0.00 0.00 60
20260901103108 79 265 5.0 17.0 0.00 0.00 0.00 61
20260901102047 78 291 6.0 22.0 0.00 0.00 0.00 61